date,time,SUV Intensity [MED/Hr],UV Index,Daily total [MED],Since Last [MED]
27/07/2023,23:59:26,-0.001,0.0,7.301,7.301
28/07/2023,00:00:27,0.000,0.0,0.0,-7.301
28/07/2023,00:01:26,0.000,0.0,0.0,0.0
28/07/2023,00:02:26,0.000,0.0,0.0,0.0
28/07/2023,00:03:26,0.000,0.0,0.0,0.0
28/07/2023,00:04:26,0.000,0.0,0.0,0.0
28/07/2023,00:05:26,0.000,0.0,0.0,0.0
28/07/2023,00:06:27,-0.000,0.0,0.0,0.0
28/07/2023,00:07:27,0.000,0.0,0.0,0.0
28/07/2023,00:08:26,0.000,0.0,0.0,0.0
28/07/2023,00:09:26,0.000,0.0,0.0,0.0
28/07/2023,00:10:26,0.000,0.0,0.0,0.0
28/07/2023,00:11:26,-0.001,0.0,0.0,0.0
28/07/2023,00:12:27,0.000,0.0,0.0,0.0
28/07/2023,00:13:26,0.000,0.0,0.0,0.0
28/07/2023,00:14:26,0.000,0.0,0.0,0.0
28/07/2023,00:15:26,0.000,0.0,0.0,0.0
28/07/2023,00:16:26,0.000,0.0,0.0,0.0
28/07/2023,00:17:26,-0.000,0.0,0.0,0.0
28/07/2023,00:18:26,-0.001,0.0,0.0,0.0
28/07/2023,00:19:27,0.000,0.0,0.0,0.0
28/07/2023,00:20:26,-0.001,0.0,0.0,0.0
28/07/2023,00:21:26,0.000,0.0,0.0,0.0
28/07/2023,00:22:27,0.000,0.0,0.0,0.0
28/07/2023,00:23:27,0.000,0.0,0.0,0.0
28/07/2023,00:24:26,0.000,0.0,0.0,0.0
28/07/2023,00:25:27,-0.000,0.0,0.0,0.0
28/07/2023,00:26:26,0.000,0.0,0.0,0.0
28/07/2023,00:27:27,0.000,0.0,0.0,0.0
28/07/2023,00:28:26,0.000,0.0,0.0,0.0
28/07/2023,00:29:26,0.000,0.0,0.0,0.0
28/07/2023,00:30:27,0.000,0.0,0.0,0.0
28/07/2023,00:31:26,0.000,0.0,0.0,0.0
28/07/2023,00:32:27,0.000,0.0,0.0,0.0
28/07/2023,00:33:26,0.000,0.0,0.0,0.0
28/07/2023,00:34:26,-0.000,0.0,0.0,0.0
28/07/2023,00:35:27,0.000,0.0,0.0,0.0
28/07/2023,00:36:26,0.000,0.0,0.0,0.0
28/07/2023,00:37:26,0.000,0.0,0.0,0.0
28/07/2023,00:38:27,0.000,0.0,0.0,0.0
28/07/2023,00:39:27,-0.000,0.0,0.0,0.0
28/07/2023,00:40:26,0.000,0.0,0.0,0.0
28/07/2023,00:41:26,0.000,0.0,0.0,0.0
28/07/2023,00:42:26,0.000,0.0,0.0,0.0
28/07/2023,00:43:26,0.000,0.0,0.0,0.0
28/07/2023,00:44:27,0.000,0.0,0.0,0.0
28/07/2023,00:45:26,0.000,0.0,0.0,0.0
28/07/2023,00:46:27,0.000,0.0,0.0,0.0
28/07/2023,00:47:26,0.000,0.0,0.0,0.0
28/07/2023,00:48:26,0.000,0.0,0.0,0.0
28/07/2023,00:49:26,0.000,0.0,0.0,0.0
28/07/2023,00:50:26,-0.000,0.0,0.0,0.0
28/07/2023,00:51:26,0.000,0.0,0.0,0.0
28/07/2023,00:52:26,0.000,0.0,0.0,0.0
28/07/2023,00:53:26,0.000,0.0,0.0,0.0
28/07/2023,00:54:27,0.000,0.0,0.0,0.0
28/07/2023,00:55:27,0.000,0.0,0.0,0.0
28/07/2023,00:56:27,-0.000,0.0,0.0,0.0
28/07/2023,00:57:27,0.000,0.0,0.0,0.0
28/07/2023,00:58:26,-0.001,0.0,0.0,0.0
28/07/2023,00:59:27,0.000,0.0,0.0,0.0
28/07/2023,01:00:26,0.000,0.0,0.0,0.0
28/07/2023,01:01:27,0.000,0.0,0.0,0.0
28/07/2023,01:02:26,-0.001,0.0,0.0,0.0
28/07/2023,01:03:26,0.000,0.0,0.0,0.0
28/07/2023,01:04:26,0.000,0.0,0.0,0.0
28/07/2023,01:05:27,0.000,0.0,0.0,0.0
28/07/2023,01:06:26,0.000,0.0,0.0,0.0
28/07/2023,01:07:26,0.000,0.0,0.0,0.0
28/07/2023,01:08:27,-0.000,0.0,0.0,0.0
28/07/2023,01:09:27,0.000,0.0,0.0,0.0
28/07/2023,01:10:27,-0.000,0.0,0.0,0.0
28/07/2023,01:11:26,-0.000,0.0,0.0,0.0
28/07/2023,01:12:27,-0.001,0.0,0.0,0.0
28/07/2023,01:13:26,0.000,0.0,0.0,0.0
28/07/2023,01:14:26,0.000,0.0,0.0,0.0
28/07/2023,01:15:27,0.000,0.0,0.0,0.0
28/07/2023,01:16:26,-0.000,0.0,0.0,0.0
28/07/2023,01:17:26,-0.000,0.0,0.0,0.0
28/07/2023,01:18:27,-0.000,0.0,0.0,0.0
28/07/2023,01:19:26,0.000,0.0,0.0,0.0
28/07/2023,01:20:26,-0.001,0.0,0.0,0.0
28/07/2023,01:21:26,-0.000,0.0,0.0,0.0
28/07/2023,01:22:26,0.000,0.0,0.0,0.0
28/07/2023,01:23:27,-0.000,0.0,0.0,0.0
28/07/2023,01:24:26,-0.000,0.0,0.0,0.0
28/07/2023,01:25:27,0.000,0.0,0.0,0.0
28/07/2023,01:26:26,-0.000,0.0,0.0,0.0
28/07/2023,01:27:26,-0.001,0.0,0.0,0.0
28/07/2023,01:28:26,0.000,0.0,0.0,0.0
28/07/2023,01:29:27,0.000,0.0,0.0,0.0
28/07/2023,01:30:26,0.000,0.0,0.0,0.0
28/07/2023,01:31:27,-0.000,0.0,0.0,0.0
28/07/2023,01:32:27,0.000,0.0,0.0,0.0
28/07/2023,01:33:32,0.000,0.0,0.0,0.0
28/07/2023,01:34:27,-0.000,0.0,0.0,0.0
28/07/2023,01:35:26,-0.000,0.0,0.0,0.0
28/07/2023,01:36:27,0.000,0.0,0.0,0.0
28/07/2023,01:37:26,-0.000,0.0,0.0,0.0
28/07/2023,01:38:27,-0.000,0.0,0.0,0.0
28/07/2023,01:39:26,-0.000,0.0,0.0,0.0
28/07/2023,01:40:27,-0.000,0.0,0.0,0.0
28/07/2023,01:41:26,-0.000,0.0,0.0,0.0
28/07/2023,01:42:27,0.000,0.0,0.0,0.0
28/07/2023,01:43:26,0.000,0.0,0.0,0.0
28/07/2023,01:44:26,0.000,0.0,0.0,0.0
28/07/2023,01:45:26,-0.000,0.0,0.0,0.0
28/07/2023,01:46:26,-0.000,0.0,0.0,0.0
28/07/2023,01:47:27,-0.000,0.0,0.0,0.0
28/07/2023,01:48:27,-0.000,0.0,0.0,0.0
28/07/2023,01:49:26,-0.000,0.0,0.0,0.0
28/07/2023,01:50:26,-0.000,0.0,0.0,0.0
28/07/2023,01:51:26,0.000,0.0,0.0,0.0
28/07/2023,01:52:27,-0.000,0.0,0.0,0.0
28/07/2023,01:53:26,-0.001,0.0,0.0,0.0
28/07/2023,01:54:26,-0.000,0.0,0.0,0.0
28/07/2023,01:55:27,0.000,0.0,0.0,0.0
28/07/2023,01:56:26,-0.000,0.0,0.0,0.0
28/07/2023,01:57:27,0.000,0.0,0.0,0.0
28/07/2023,01:58:27,-0.000,0.0,0.0,0.0
28/07/2023,01:59:26,-0.001,0.0,0.0,0.0
28/07/2023,02:00:26,0.000,0.0,0.0,0.0
28/07/2023,02:01:27,-0.000,0.0,0.0,0.0
28/07/2023,02:02:26,-0.000,0.0,0.0,0.0
28/07/2023,02:03:27,-0.000,0.0,0.0,0.0
28/07/2023,02:04:26,-0.000,0.0,0.0,0.0
28/07/2023,02:05:27,-0.000,0.0,0.0,0.0
28/07/2023,02:06:26,0.000,0.0,0.0,0.0
28/07/2023,02:07:26,-0.000,0.0,0.0,0.0
28/07/2023,02:08:26,-0.000,0.0,0.0,0.0
28/07/2023,02:09:26,0.000,0.0,0.0,0.0
28/07/2023,02:10:27,-0.000,0.0,0.0,0.0
28/07/2023,02:11:27,0.000,0.0,0.0,0.0
28/07/2023,02:12:27,-0.001,0.0,0.0,0.0
28/07/2023,02:13:26,-0.000,0.0,0.0,0.0
28/07/2023,02:14:27,0.000,0.0,0.0,0.0
28/07/2023,02:15:26,-0.000,0.0,0.0,0.0
28/07/2023,02:16:26,0.000,0.0,0.0,0.0
28/07/2023,02:17:26,-0.000,0.0,0.0,0.0
28/07/2023,02:18:26,0.000,0.0,0.0,0.0
28/07/2023,02:19:27,-0.000,0.0,0.0,0.0
28/07/2023,02:20:26,0.000,0.0,0.0,0.0
28/07/2023,02:21:26,-0.001,0.0,0.0,0.0
28/07/2023,02:22:27,-0.000,0.0,0.0,0.0
28/07/2023,02:23:27,0.000,0.0,0.0,0.0
28/07/2023,02:24:27,-0.000,0.0,0.0,0.0
28/07/2023,02:25:26,-0.000,0.0,0.0,0.0
28/07/2023,02:26:27,-0.000,0.0,0.0,0.0
28/07/2023,02:27:26,-0.000,0.0,0.0,0.0
28/07/2023,02:28:26,-0.000,0.0,0.0,0.0
28/07/2023,02:29:26,-0.000,0.0,0.0,0.0
28/07/2023,02:30:27,-0.000,0.0,0.0,0.0
28/07/2023,02:31:27,-0.001,0.0,0.0,0.0
28/07/2023,02:32:27,0.000,0.0,0.0,0.0
28/07/2023,02:33:26,-0.000,0.0,0.0,0.0
28/07/2023,02:34:27,-0.000,0.0,0.0,0.0
28/07/2023,02:35:26,0.000,0.0,0.0,0.0
28/07/2023,02:36:27,-0.000,0.0,0.0,0.0
28/07/2023,02:37:27,-0.001,0.0,0.0,0.0
28/07/2023,02:38:27,0.000,0.0,0.0,0.0
28/07/2023,02:39:26,-0.000,0.0,0.0,0.0
28/07/2023,02:40:27,-0.000,0.0,0.0,0.0
28/07/2023,02:41:30,0.000,0.0,0.0,0.0
28/07/2023,02:42:27,-0.001,0.0,0.0,0.0
28/07/2023,02:43:26,0.000,0.0,0.0,0.0
28/07/2023,02:44:27,-0.000,0.0,0.0,0.0
28/07/2023,02:45:26,0.000,0.0,0.0,0.0
28/07/2023,02:46:27,-0.000,0.0,0.0,0.0
28/07/2023,02:47:26,-0.000,0.0,0.0,0.0
28/07/2023,02:48:27,0.000,0.0,0.0,0.0
28/07/2023,02:49:27,0.000,0.0,0.0,0.0
28/07/2023,02:50:27,-0.000,0.0,0.0,0.0
28/07/2023,02:51:26,0.000,0.0,0.0,0.0
28/07/2023,02:52:26,0.000,0.0,0.0,0.0
28/07/2023,02:53:27,-0.000,0.0,0.0,0.0
28/07/2023,02:54:26,-0.000,0.0,0.0,0.0
28/07/2023,02:55:26,-0.000,0.0,0.0,0.0
28/07/2023,02:56:27,0.000,0.0,0.0,0.0
28/07/2023,02:57:27,-0.001,0.0,0.0,0.0
28/07/2023,02:58:27,0.000,0.0,0.0,0.0
28/07/2023,02:59:26,0.000,0.0,0.0,0.0
28/07/2023,03:00:27,-0.000,0.0,0.0,0.0
28/07/2023,03:01:26,0.000,0.0,0.0,0.0
28/07/2023,03:02:27,-0.001,0.0,0.0,0.0
28/07/2023,03:03:27,0.000,0.0,0.0,0.0
28/07/2023,03:04:27,-0.000,0.0,0.0,0.0
28/07/2023,03:05:27,0.000,0.0,0.0,0.0
28/07/2023,03:06:26,0.000,0.0,0.0,0.0
28/07/2023,03:07:27,0.000,0.0,0.0,0.0
28/07/2023,03:08:27,-0.000,0.0,0.0,0.0
28/07/2023,03:09:27,0.000,0.0,0.0,0.0
28/07/2023,03:10:27,-0.000,0.0,0.0,0.0
28/07/2023,03:11:27,-0.000,0.0,0.0,0.0
28/07/2023,03:12:27,-0.000,0.0,0.0,0.0
28/07/2023,03:13:27,-0.000,0.0,0.0,0.0
28/07/2023,03:14:26,-0.000,0.0,0.0,0.0
28/07/2023,03:15:27,0.000,0.0,0.0,0.0
28/07/2023,03:16:26,-0.000,0.0,0.0,0.0
28/07/2023,03:17:27,-0.000,0.0,0.0,0.0
28/07/2023,03:18:27,-0.000,0.0,0.0,0.0
28/07/2023,03:19:27,0.000,0.0,0.0,0.0
28/07/2023,03:20:26,-0.000,0.0,0.0,0.0
28/07/2023,03:21:26,0.000,0.0,0.0,0.0
28/07/2023,03:22:26,-0.000,0.0,0.0,0.0
28/07/2023,03:23:26,-0.000,0.0,0.0,0.0
28/07/2023,03:24:27,-0.000,0.0,0.0,0.0
28/07/2023,03:25:26,0.000,0.0,0.0,0.0
28/07/2023,03:26:27,0.000,0.0,0.0,0.0
28/07/2023,03:27:26,-0.001,0.0,0.0,0.0
28/07/2023,03:28:27,0.000,0.0,0.0,0.0
28/07/2023,03:29:26,0.000,0.0,0.0,0.0
28/07/2023,03:30:26,0.000,0.0,0.0,0.0
28/07/2023,03:31:26,0.000,0.0,0.0,0.0
28/07/2023,03:32:27,0.000,0.0,0.0,0.0
28/07/2023,03:33:26,0.000,0.0,0.0,0.0
28/07/2023,03:34:27,-0.001,0.0,0.0,0.0
28/07/2023,03:35:27,-0.000,0.0,0.0,0.0
28/07/2023,03:36:26,-0.000,0.0,0.0,0.0
28/07/2023,03:37:27,-0.000,0.0,0.0,0.0
28/07/2023,03:38:27,-0.000,0.0,0.0,0.0
28/07/2023,03:39:26,-0.000,0.0,0.0,0.0
28/07/2023,03:40:27,-0.000,0.0,0.0,0.0
28/07/2023,03:41:26,-0.000,0.0,0.0,0.0
28/07/2023,03:42:26,-0.000,0.0,0.0,0.0
28/07/2023,03:43:27,-0.000,0.0,0.0,0.0
28/07/2023,03:44:27,-0.000,0.0,0.0,0.0
28/07/2023,03:45:27,0.000,0.0,0.0,0.0
28/07/2023,03:46:27,0.000,0.0,0.0,0.0
28/07/2023,03:47:26,0.000,0.0,0.0,0.0
28/07/2023,03:48:27,0.000,0.0,0.0,0.0
28/07/2023,03:49:27,0.000,0.0,0.0,0.0
28/07/2023,03:50:27,-0.000,0.0,0.0,0.0
28/07/2023,03:51:27,0.000,0.0,0.0,0.0
28/07/2023,03:52:27,0.000,0.0,0.0,0.0
28/07/2023,03:53:26,0.000,0.0,0.0,0.0
28/07/2023,03:54:27,0.000,0.0,0.0,0.0
28/07/2023,03:55:26,-0.001,0.0,0.0,0.0
28/07/2023,03:56:27,0.000,0.0,0.0,0.0
28/07/2023,03:57:26,0.000,0.0,0.0,0.0
28/07/2023,03:58:27,0.000,0.0,0.0,0.0
28/07/2023,03:59:26,0.000,0.0,0.0,0.0
28/07/2023,04:00:27,0.000,0.0,0.0,0.0
28/07/2023,04:01:26,0.000,0.0,0.0,0.0
28/07/2023,04:02:26,0.000,0.0,0.0,0.0
28/07/2023,04:03:27,0.000,0.0,0.0,0.0
28/07/2023,04:04:27,-0.001,0.0,0.0,0.0
28/07/2023,04:05:27,-0.001,0.0,0.0,0.0
28/07/2023,04:06:27,0.000,0.0,0.0,0.0
28/07/2023,04:07:26,0.000,0.0,0.0,0.0
28/07/2023,04:08:26,0.000,0.0,0.0,0.0
28/07/2023,04:09:27,-0.000,0.0,0.0,0.0
28/07/2023,04:10:27,0.000,0.0,0.0,0.0
28/07/2023,04:11:26,0.000,0.0,0.0,0.0
28/07/2023,04:12:27,0.000,0.0,0.0,0.0
28/07/2023,04:13:26,0.000,0.0,0.0,0.0
28/07/2023,04:14:27,0.001,0.0,0.0,0.0
28/07/2023,04:15:27,0.001,0.0,0.0,0.0
28/07/2023,04:16:26,0.000,0.0,0.0,0.0
28/07/2023,04:17:27,0.000,0.0,0.0,0.0
28/07/2023,04:18:26,0.001,0.0,0.0,0.0
28/07/2023,04:19:26,0.001,0.0,0.0,0.0
28/07/2023,04:20:27,0.000,0.0,0.0,0.0
28/07/2023,04:21:27,0.003,0.0,0.0,0.0
28/07/2023,04:22:27,0.000,0.0,0.0,0.0
28/07/2023,04:23:27,0.001,0.0,0.0,0.0
28/07/2023,04:24:27,0.001,0.0,0.0,0.0
28/07/2023,04:25:26,0.001,0.0,0.0,0.0
28/07/2023,04:26:27,0.001,0.0,0.0,0.0
28/07/2023,04:27:27,0.001,0.0,0.0,0.0
28/07/2023,04:28:26,0.000,0.0,0.0,0.0
28/07/2023,04:29:27,0.001,0.0,0.0,0.0
28/07/2023,04:30:26,0.000,0.0,0.0,0.0
28/07/2023,04:31:26,0.001,0.0,0.0,0.0
28/07/2023,04:32:27,0.001,0.0,0.0,0.0
28/07/2023,04:33:27,0.001,0.0,0.0,0.0
28/07/2023,04:34:27,0.001,0.0,0.0,0.0
28/07/2023,04:35:26,0.001,0.0,0.0,0.0
28/07/2023,04:36:27,0.001,0.0,0.0,0.0
28/07/2023,04:37:26,0.001,0.0,0.0,0.0
28/07/2023,04:38:27,0.003,0.0,0.0,0.0
28/07/2023,04:39:27,0.002,0.0,0.0,0.0
28/07/2023,04:40:26,0.003,0.0,0.0,0.0
28/07/2023,04:41:27,0.002,0.0,0.0,0.0
28/07/2023,04:42:27,0.004,0.0,0.0,0.0
28/07/2023,04:43:27,0.004,0.0,0.0,0.0
28/07/2023,04:44:27,0.004,0.0,0.0,0.0
28/07/2023,04:45:27,0.005,0.0,0.0,0.0
28/07/2023,04:46:27,0.005,0.0,0.0,0.0
28/07/2023,04:47:26,0.006,0.0,0.0,0.0
28/07/2023,04:48:27,0.005,0.0,0.0,0.0
28/07/2023,04:49:27,0.005,0.0,0.0,0.0
28/07/2023,04:50:26,0.005,0.0,0.0,0.0
28/07/2023,04:51:27,0.006,0.0,0.0,0.0
28/07/2023,04:52:27,0.005,0.0,0.0,0.0
28/07/2023,04:53:27,0.007,0.0,0.0,0.0
28/07/2023,04:54:27,0.006,0.0,0.0,0.0
28/07/2023,04:55:27,0.006,0.0,0.0,0.0
28/07/2023,04:56:26,0.006,0.0,0.0,0.0
28/07/2023,04:57:27,0.007,0.0,0.0,0.0
28/07/2023,04:58:27,0.006,0.0,0.0,0.0
28/07/2023,04:59:26,0.006,0.0,0.001,0.001
28/07/2023,05:00:27,0.006,0.0,0.001,0.0
28/07/2023,05:01:27,0.006,0.0,0.001,0.0
28/07/2023,05:02:26,0.007,0.0,0.001,0.0
28/07/2023,05:03:26,0.008,0.0,0.001,0.0
28/07/2023,05:04:27,0.007,0.0,0.001,0.0
28/07/2023,05:05:26,0.008,0.0,0.001,0.0
28/07/2023,05:06:26,0.006,0.0,0.001,0.0
28/07/2023,05:07:27,0.007,0.0,0.001,0.0
28/07/2023,05:08:27,0.007,0.0,0.002,0.001
28/07/2023,05:09:27,0.007,0.0,0.002,0.0
28/07/2023,05:10:26,0.008,0.0,0.002,0.0
28/07/2023,05:11:27,0.007,0.0,0.002,0.0
28/07/2023,05:12:26,0.008,0.0,0.002,0.0
28/07/2023,05:13:27,0.008,0.0,0.002,0.0
28/07/2023,05:14:27,0.010,0.0,0.002,0.0
28/07/2023,05:15:27,0.010,0.0,0.002,0.0
28/07/2023,05:16:27,0.010,0.0,0.003,0.001
28/07/2023,05:17:26,0.010,0.0,0.003,0.0
28/07/2023,05:18:27,0.011,0.0,0.003,0.0
28/07/2023,05:19:27,0.011,0.0,0.003,0.0
28/07/2023,05:20:26,0.012,0.0,0.003,0.0
28/07/2023,05:21:27,0.012,0.0,0.004,0.001
28/07/2023,05:22:27,0.010,0.0,0.004,0.0
28/07/2023,05:23:27,0.011,0.0,0.004,0.0
28/07/2023,05:24:26,0.013,0.0,0.004,0.0
28/07/2023,05:25:27,0.015,0.0,0.004,0.0
28/07/2023,05:26:27,0.015,0.0,0.005,0.001
28/07/2023,05:27:27,0.016,0.0,0.005,0.0
28/07/2023,05:28:26,0.016,0.0,0.005,0.0
28/07/2023,05:29:26,0.017,0.0,0.005,0.0
28/07/2023,05:30:27,0.016,0.0,0.006,0.001
28/07/2023,05:31:27,0.016,0.0,0.006,0.0
28/07/2023,05:32:27,0.018,0.0,0.006,0.0
28/07/2023,05:33:27,0.020,0.0,0.007,0.001
28/07/2023,05:34:26,0.022,0.0,0.007,0.0
28/07/2023,05:35:27,0.023,0.0,0.007,0.0
28/07/2023,05:36:27,0.021,0.0,0.008,0.001
28/07/2023,05:37:27,0.021,0.0,0.008,0.0
28/07/2023,05:38:27,0.021,0.0,0.008,0.0
28/07/2023,05:39:27,0.021,0.0,0.009,0.001
28/07/2023,05:40:27,0.021,0.0,0.009,0.0
28/07/2023,05:41:27,0.022,0.0,0.009,0.0
28/07/2023,05:42:27,0.022,0.0,0.01,0.001
28/07/2023,05:43:26,0.023,0.0,0.01,0.0
28/07/2023,05:44:27,0.024,0.0,0.011,0.001
28/07/2023,05:45:27,0.025,0.0,0.011,0.0
28/07/2023,05:46:26,0.025,0.0,0.011,0.0
28/07/2023,05:47:26,0.025,0.0,0.012,0.001
28/07/2023,05:48:27,0.028,0.0,0.012,0.0
28/07/2023,05:49:27,0.032,0.0,0.013,0.001
28/07/2023,05:50:26,0.035,0.0,0.013,0.0
28/07/2023,05:51:27,0.038,0.0,0.014,0.001
28/07/2023,05:52:27,0.039,0.0,0.015,0.001
28/07/2023,05:53:27,0.041,0.0,0.015,0.0
28/07/2023,05:54:27,0.041,0.0,0.016,0.001
28/07/2023,05:55:27,0.042,0.0,0.017,0.001
28/07/2023,05:56:27,0.041,0.0,0.017,0.0
28/07/2023,05:57:27,0.044,0.0,0.018,0.001
28/07/2023,05:58:27,0.046,0.0,0.019,0.001
28/07/2023,05:59:27,0.045,0.0,0.019,0.0
28/07/2023,06:00:27,0.044,0.0,0.02,0.001
28/07/2023,06:01:27,0.042,0.0,0.021,0.001
28/07/2023,06:02:26,0.042,0.0,0.022,0.001
28/07/2023,06:03:27,0.044,0.0,0.022,0.0
28/07/2023,06:04:27,0.044,0.0,0.023,0.001
28/07/2023,06:05:27,0.042,0.0,0.024,0.001
28/07/2023,06:06:27,0.044,0.0,0.025,0.001
28/07/2023,06:07:27,0.051,0.0,0.025,0.0
28/07/2023,06:08:26,0.055,0.0,0.026,0.001
28/07/2023,06:09:27,0.053,0.0,0.027,0.001
28/07/2023,06:10:27,0.052,0.0,0.028,0.001
28/07/2023,06:11:27,0.059,0.0,0.029,0.001
28/07/2023,06:12:27,0.074,0.0,0.03,0.001
28/07/2023,06:13:27,0.086,0.0,0.031,0.001
28/07/2023,06:14:27,0.084,0.0,0.033,0.002
28/07/2023,06:15:27,0.081,0.0,0.034,0.001
28/07/2023,06:16:26,0.086,0.0,0.036,0.002
28/07/2023,06:17:27,0.084,0.0,0.037,0.001
28/07/2023,06:18:27,0.084,0.0,0.038,0.001
28/07/2023,06:19:27,0.084,0.0,0.04,0.002
28/07/2023,06:20:27,0.078,0.0,0.041,0.001
28/07/2023,06:21:27,0.073,0.0,0.042,0.001
28/07/2023,06:22:27,0.074,0.0,0.044,0.002
28/07/2023,06:23:27,0.070,0.0,0.045,0.001
28/07/2023,06:24:27,0.075,0.0,0.046,0.001
28/07/2023,06:25:27,0.075,0.0,0.047,0.001
28/07/2023,06:26:27,0.078,0.0,0.049,0.002
28/07/2023,06:27:27,0.080,0.0,0.05,0.001
28/07/2023,06:28:27,0.076,0.0,0.051,0.001
28/07/2023,06:29:27,0.074,0.0,0.052,0.001
28/07/2023,06:30:27,0.071,0.0,0.054,0.002
28/07/2023,06:31:26,0.064,0.0,0.055,0.001
28/07/2023,06:32:26,0.060,0.0,0.056,0.001
28/07/2023,06:33:27,0.070,0.0,0.057,0.001
28/07/2023,06:34:26,0.076,0.0,0.058,0.001
28/07/2023,06:35:27,0.075,0.0,0.059,0.001
28/07/2023,06:36:27,0.076,0.0,0.061,0.002
28/07/2023,06:37:27,0.077,0.0,0.062,0.001
28/07/2023,06:38:27,0.074,0.0,0.063,0.001
28/07/2023,06:39:27,0.067,0.0,0.064,0.001
28/07/2023,06:40:27,0.059,0.0,0.065,0.001
28/07/2023,06:41:26,0.054,0.0,0.066,0.001
28/07/2023,06:42:27,0.050,0.0,0.067,0.001
28/07/2023,06:43:27,0.051,0.0,0.068,0.001
28/07/2023,06:44:27,0.051,0.0,0.069,0.001
28/07/2023,06:45:27,0.050,0.0,0.07,0.001
28/07/2023,06:46:27,0.048,0.0,0.07,0.0
28/07/2023,06:47:27,0.048,0.0,0.071,0.001
28/07/2023,06:48:26,0.049,0.0,0.072,0.001
28/07/2023,06:49:27,0.052,0.0,0.073,0.001
28/07/2023,06:50:27,0.059,0.0,0.074,0.001
28/07/2023,06:51:27,0.061,0.0,0.075,0.001
28/07/2023,06:52:27,0.064,0.0,0.076,0.001
28/07/2023,06:53:27,0.067,0.0,0.077,0.001
28/07/2023,06:54:27,0.067,0.0,0.078,0.001
28/07/2023,06:55:26,0.068,0.0,0.079,0.001
28/07/2023,06:56:27,0.073,0.0,0.08,0.001
28/07/2023,06:57:27,0.098,0.0,0.082,0.002
28/07/2023,06:58:27,0.133,0.0,0.084,0.002
28/07/2023,06:59:27,0.159,0.0,0.086,0.002
28/07/2023,07:00:27,0.172,0.0,0.089,0.003
28/07/2023,07:01:27,0.181,0.0,0.092,0.003
28/07/2023,07:02:27,0.195,0.0,0.095,0.003
28/07/2023,07:03:27,0.213,0.0,0.099,0.004
28/07/2023,07:04:27,0.231,1.0,0.102,0.003
28/07/2023,07:05:27,0.237,1.0,0.106,0.004
28/07/2023,07:06:27,0.236,1.0,0.11,0.004
28/07/2023,07:07:27,0.227,1.0,0.114,0.004
28/07/2023,07:08:27,0.215,0.0,0.118,0.004
28/07/2023,07:09:27,0.194,0.0,0.121,0.003
28/07/2023,07:10:27,0.173,0.0,0.124,0.003
28/07/2023,07:11:27,0.157,0.0,0.127,0.003
28/07/2023,07:12:27,0.142,0.0,0.129,0.002
28/07/2023,07:13:27,0.128,0.0,0.132,0.003
28/07/2023,07:14:27,0.119,0.0,0.134,0.002
28/07/2023,07:15:27,0.115,0.0,0.136,0.002
28/07/2023,07:16:27,0.110,0.0,0.138,0.002
28/07/2023,07:17:27,0.105,0.0,0.139,0.001
28/07/2023,07:18:27,0.106,0.0,0.141,0.002
28/07/2023,07:19:27,0.114,0.0,0.143,0.002
28/07/2023,07:20:27,0.126,0.0,0.145,0.002
28/07/2023,07:21:27,0.122,0.0,0.147,0.002
28/07/2023,07:22:27,0.108,0.0,0.149,0.002
28/07/2023,07:23:27,0.110,0.0,0.151,0.002
28/07/2023,07:24:27,0.132,0.0,0.153,0.002
28/07/2023,07:25:27,0.174,0.0,0.155,0.002
28/07/2023,07:26:27,0.227,1.0,0.159,0.004
28/07/2023,07:27:28,0.266,1.0,0.163,0.004
28/07/2023,07:28:27,0.294,1.0,0.168,0.005
28/07/2023,07:29:27,0.305,1.0,0.173,0.005
28/07/2023,07:30:27,0.304,1.0,0.178,0.005
28/07/2023,07:31:27,0.277,1.0,0.182,0.004
28/07/2023,07:32:27,0.259,1.0,0.187,0.005
28/07/2023,07:33:27,0.255,1.0,0.191,0.004
28/07/2023,07:34:27,0.256,1.0,0.195,0.004
28/07/2023,07:35:27,0.261,1.0,0.2,0.005
28/07/2023,07:36:28,0.267,1.0,0.204,0.004
28/07/2023,07:37:27,0.269,1.0,0.209,0.005
28/07/2023,07:38:27,0.262,1.0,0.213,0.004
28/07/2023,07:39:27,0.244,1.0,0.217,0.004
28/07/2023,07:40:27,0.239,1.0,0.221,0.004
28/07/2023,07:41:27,0.263,1.0,0.226,0.005
28/07/2023,07:42:27,0.283,1.0,0.23,0.004
28/07/2023,07:43:27,0.292,1.0,0.235,0.005
28/07/2023,07:44:27,0.298,1.0,0.24,0.005
28/07/2023,07:45:27,0.302,1.0,0.245,0.005
28/07/2023,07:46:27,0.304,1.0,0.25,0.005
28/07/2023,07:47:27,0.307,1.0,0.255,0.005
28/07/2023,07:48:27,0.278,1.0,0.26,0.005
28/07/2023,07:49:27,0.258,1.0,0.264,0.004
28/07/2023,07:50:27,0.274,1.0,0.269,0.005
28/07/2023,07:51:27,0.315,1.0,0.274,0.005
28/07/2023,07:52:27,0.355,1.0,0.279,0.005
28/07/2023,07:53:27,0.389,1.0,0.285,0.006
28/07/2023,07:54:27,0.430,1.0,0.292,0.007
28/07/2023,07:55:26,0.462,1.0,0.3,0.008
28/07/2023,07:56:27,0.486,1.0,0.308,0.008
28/07/2023,07:57:27,0.513,1.0,0.316,0.008
28/07/2023,07:58:27,0.532,1.0,0.325,0.009
28/07/2023,07:59:27,0.509,1.0,0.334,0.009
28/07/2023,08:00:27,0.469,1.0,0.342,0.008
28/07/2023,08:01:27,0.459,1.0,0.349,0.007
28/07/2023,08:02:27,0.428,1.0,0.357,0.008
28/07/2023,08:03:27,0.423,1.0,0.364,0.007
28/07/2023,08:04:27,0.413,1.0,0.371,0.007
28/07/2023,08:05:27,0.397,1.0,0.377,0.006
28/07/2023,08:06:27,0.426,1.0,0.384,0.007
28/07/2023,08:07:27,0.437,1.0,0.392,0.008
28/07/2023,08:08:27,0.393,1.0,0.399,0.007
28/07/2023,08:09:27,0.346,1.0,0.405,0.006
28/07/2023,08:10:27,0.288,1.0,0.41,0.005
28/07/2023,08:11:28,0.213,0.0,0.414,0.004
28/07/2023,08:12:27,0.185,0.0,0.417,0.003
28/07/2023,08:13:27,0.211,0.0,0.421,0.004
28/07/2023,08:14:27,0.228,1.0,0.424,0.003
28/07/2023,08:15:27,0.262,1.0,0.428,0.004
28/07/2023,08:16:27,0.325,1.0,0.433,0.005
28/07/2023,08:17:27,0.381,1.0,0.439,0.006
28/07/2023,08:18:27,0.400,1.0,0.446,0.007
28/07/2023,08:19:27,0.396,1.0,0.453,0.007
28/07/2023,08:20:27,0.397,1.0,0.459,0.006
28/07/2023,08:21:27,0.407,1.0,0.466,0.007
28/07/2023,08:22:27,0.425,1.0,0.473,0.007
28/07/2023,08:23:27,0.438,1.0,0.48,0.007
28/07/2023,08:24:27,0.449,1.0,0.487,0.007
28/07/2023,08:25:27,0.473,1.0,0.495,0.008
28/07/2023,08:26:27,0.486,1.0,0.503,0.008
28/07/2023,08:27:27,0.497,1.0,0.511,0.008
28/07/2023,08:28:27,0.524,1.0,0.519,0.008
28/07/2023,08:29:27,0.550,1.0,0.528,0.009
28/07/2023,08:30:27,0.566,1.0,0.538,0.01
28/07/2023,08:31:27,0.577,1.0,0.547,0.009
28/07/2023,08:32:28,0.603,1.0,0.557,0.01
28/07/2023,08:33:27,0.651,1.0,0.567,0.01
28/07/2023,08:34:27,0.677,2.0,0.578,0.011
28/07/2023,08:35:27,0.750,2.0,0.591,0.013
28/07/2023,08:36:27,0.802,2.0,0.603,0.012
28/07/2023,08:37:27,0.928,2.0,0.618,0.015
28/07/2023,08:38:27,0.916,2.0,0.633,0.015
28/07/2023,08:39:28,0.850,2.0,0.648,0.015
28/07/2023,08:40:27,0.850,2.0,0.663,0.015
28/07/2023,08:41:27,0.905,2.0,0.678,0.015
28/07/2023,08:42:28,0.901,2.0,0.693,0.015
28/07/2023,08:43:27,0.949,2.0,0.708,0.015
28/07/2023,08:44:27,0.823,2.0,0.722,0.014
28/07/2023,08:45:27,0.902,2.0,0.737,0.015
28/07/2023,08:46:28,0.745,2.0,0.751,0.014
28/07/2023,08:47:27,0.948,2.0,0.766,0.015
28/07/2023,08:48:27,1.035,2.0,0.782,0.016
28/07/2023,08:49:27,0.890,2.0,0.798,0.016
28/07/2023,08:50:27,0.779,2.0,0.813,0.015
28/07/2023,08:51:27,0.855,2.0,0.826,0.013
28/07/2023,08:52:27,0.759,2.0,0.839,0.013
28/07/2023,08:53:27,0.763,2.0,0.852,0.013
28/07/2023,08:54:28,0.843,2.0,0.865,0.013
28/07/2023,08:55:27,0.790,2.0,0.88,0.015
28/07/2023,08:56:27,0.819,2.0,0.893,0.013
28/07/2023,08:57:27,0.777,2.0,0.908,0.015
28/07/2023,08:58:28,0.810,2.0,0.921,0.013
28/07/2023,08:59:27,0.928,2.0,0.935,0.014
28/07/2023,09:00:27,0.875,2.0,0.951,0.016
28/07/2023,09:01:27,0.734,2.0,0.965,0.014
28/07/2023,09:02:27,0.669,2.0,0.976,0.011
28/07/2023,09:03:27,0.673,2.0,0.988,0.012
28/07/2023,09:04:27,0.749,2.0,0.999,0.011
28/07/2023,09:05:27,0.632,1.0,1.011,0.012
28/07/2023,09:06:27,0.617,1.0,1.021,0.01
28/07/2023,09:07:27,0.617,1.0,1.031,0.01
28/07/2023,09:08:27,0.594,1.0,1.041,0.01
28/07/2023,09:09:27,0.520,1.0,1.051,0.01
28/07/2023,09:10:27,0.476,1.0,1.059,0.008
28/07/2023,09:11:27,0.463,1.0,1.067,0.008
28/07/2023,09:12:27,0.468,1.0,1.074,0.007
28/07/2023,09:13:27,0.511,1.0,1.082,0.008
28/07/2023,09:14:27,0.599,1.0,1.092,0.01
28/07/2023,09:15:27,0.666,2.0,1.102,0.01
28/07/2023,09:16:28,0.757,2.0,1.115,0.013
28/07/2023,09:17:27,0.650,1.0,1.126,0.011
28/07/2023,09:18:27,0.618,1.0,1.136,0.01
28/07/2023,09:19:27,0.577,1.0,1.147,0.011
28/07/2023,09:20:27,0.508,1.0,1.155,0.008
28/07/2023,09:21:27,0.470,1.0,1.163,0.008
28/07/2023,09:22:27,0.473,1.0,1.172,0.009
28/07/2023,09:23:27,0.455,1.0,1.179,0.007
28/07/2023,09:24:27,0.413,1.0,1.186,0.007
28/07/2023,09:25:28,0.408,1.0,1.193,0.007
28/07/2023,09:26:27,0.463,1.0,1.2,0.007
28/07/2023,09:27:27,0.507,1.0,1.208,0.008
28/07/2023,09:28:27,0.532,1.0,1.217,0.009
28/07/2023,09:29:27,0.595,1.0,1.226,0.009
28/07/2023,09:30:26,0.702,2.0,1.237,0.011
28/07/2023,09:31:28,0.725,2.0,1.25,0.013
28/07/2023,09:32:28,0.771,2.0,1.263,0.013
28/07/2023,09:33:27,0.773,2.0,1.276,0.013
28/07/2023,09:34:28,0.725,2.0,1.288,0.012
28/07/2023,09:35:27,0.658,2.0,1.299,0.011
28/07/2023,09:36:27,0.625,1.0,1.31,0.011
28/07/2023,09:37:27,0.656,2.0,1.321,0.011
28/07/2023,09:38:28,0.783,2.0,1.333,0.012
28/07/2023,09:39:27,0.957,2.0,1.347,0.014
28/07/2023,09:40:27,1.130,3.0,1.366,0.019
28/07/2023,09:41:28,1.204,3.0,1.387,0.021
28/07/2023,09:42:28,0.791,2.0,1.402,0.015
28/07/2023,09:43:27,0.697,2.0,1.414,0.012
28/07/2023,09:44:27,0.609,1.0,1.425,0.011
28/07/2023,09:45:27,0.550,1.0,1.435,0.01
28/07/2023,09:46:28,0.499,1.0,1.444,0.009
28/07/2023,09:47:27,0.415,1.0,1.451,0.007
28/07/2023,09:48:27,0.364,1.0,1.458,0.007
28/07/2023,09:49:26,0.326,1.0,1.463,0.005
28/07/2023,09:50:27,0.296,1.0,1.468,0.005
28/07/2023,09:51:28,0.265,1.0,1.473,0.005
28/07/2023,09:52:28,0.241,1.0,1.477,0.004
28/07/2023,09:53:27,0.217,0.0,1.481,0.004
28/07/2023,09:54:27,0.200,0.0,1.484,0.003
28/07/2023,09:55:27,0.201,0.0,1.488,0.004
28/07/2023,09:56:29,0.220,1.0,1.491,0.003